When you browse on this site, cookies collect data to enhance your experience and personalize the content and advertising you see.
Visit our Privacy Policy to learn more. By continuing to use the site, you agree to this use of cookies and data.
EN

Hourly Weather Anta

Today, 15 August, Saturday

Time Temperature Precipitation Wind Pressure Humidity
00:00 +16°C° 0 mm 1 mps 752 mmHg 88%
01:00 +15°C° 0 mm 1 mps 751 mmHg 88%
02:00 +14°C° 0 mm 0 mps 751 mmHg 89%
03:00 +15°C° 0 mm 1 mps 751 mmHg 89%
04:00 +15°C° 0 mm 1 mps 751 mmHg 89%
05:00 +15°C° 0 mm 2 mps 751 mmHg 89%
06:00 +17°C° 0.1 mm 2 mps 751 mmHg 82%
07:00 +19°C° 0.1 mm 2 mps 752 mmHg 75%
08:00 +21°C° 0.1 mm 2 mps 752 mmHg 68%
09:00 +22°C° 0.1 mm 3 mps 752 mmHg 63%
10:00 +22°C° 0.1 mm 3 mps 752 mmHg 58%
11:00 +24°C° 0.1 mm 3 mps 752 mmHg 54%
12:00 +23°C° 0 mm 4 mps 752 mmHg 53%
13:00 +23°C° 0 mm 4 mps 751 mmHg 52%
14:00 +23°C° 0 mm 4 mps 751 mmHg 51%
15:00 +23°C° 0 mm 4 mps 751 mmHg 55%
16:00 +22°C° 0 mm 4 mps 752 mmHg 59%
17:00 +21°C° 0 mm 4 mps 752 mmHg 63%
18:00 +20°C° 0 mm 3 mps 752 mmHg 71%
19:00 +18°C° 0 mm 2 mps 752 mmHg 78%
20:00 +18°C° 0 mm 1 mps 753 mmHg 85%
21:00 +18°C° 0 mm 1 mps 753 mmHg 86%
22:00 +18°C° 0 mm 1 mps 753 mmHg 87%
23:00 +16°C° 0 mm 1 mps 753 mmHg 88%

Tomorrow, 16 August, Sunday

Time Temperature Precipitation Wind Pressure Humidity
00:00 +16°C° 0 mm 1 mps 752 mmHg 88%
01:00 +16°C° 0 mm 1 mps 752 mmHg 89%
02:00 +16°C° 0 mm 1 mps 752 mmHg 89%
03:00 +16°C° 0.1 mm 1 mps 752 mmHg 89%
04:00 +16°C° 0.1 mm 1 mps 752 mmHg 89%
05:00 +16°C° 0.1 mm 1 mps 752 mmHg 89%
06:00 +17°C° 0.1 mm 2 mps 752 mmHg 83%
07:00 +19°C° 0.1 mm 2 mps 752 mmHg 76%
08:00 +21°C° 0.1 mm 2 mps 752 mmHg 69%
09:00 +22°C° 0 mm 3 mps 752 mmHg 63%
10:00 +24°C° 0 mm 3 mps 752 mmHg 57%
11:00 +25°C° 0 mm 3 mps 752 mmHg 51%
12:00 +25°C° 0 mm 4 mps 752 mmHg 52%
13:00 +25°C° 0 mm 4 mps 752 mmHg 52%
14:00 +25°C° 0 mm 4 mps 751 mmHg 52%
15:00 +23°C° 0 mm 4 mps 751 mmHg 58%
16:00 +22°C° 0 mm 4 mps 751 mmHg 63%
17:00 +22°C° 0 mm 3 mps 751 mmHg 69%
18:00 +21°C° 0 mm 3 mps 751 mmHg 73%
19:00 +20°C° 0 mm 3 mps 751 mmHg 77%
20:00 +19°C° 0 mm 3 mps 752 mmHg 81%
21:00 +19°C° 0.1 mm 3 mps 751 mmHg 83%
22:00 +19°C° 0.1 mm 3 mps 751 mmHg 84%
23:00 +19°C° 0.1 mm 4 mps 751 mmHg 85%

Day after tomorrow, 17 August, Monday

Time Temperature Precipitation Wind Pressure Humidity
00:00 +19°C° 0.1 mm 4 mps 751 mmHg 85%
01:00 +19°C° 0.1 mm 4 mps 751 mmHg 86%
02:00 +19°C° 0.1 mm 4 mps 750 mmHg 87%
03:00 +19°C° 0.1 mm 4 mps 750 mmHg 88%
04:00 +19°C° 0.1 mm 4 mps 750 mmHg 89%
05:00 +19°C° 0.1 mm 4 mps 750 mmHg 90%
06:00 +20°C° 0.1 mm 5 mps 750 mmHg 87%
07:00 +21°C° 0.1 mm 6 mps 750 mmHg 83%
08:00 +21°C° 0.1 mm 6 mps 750 mmHg 80%
09:00 +22°C° 0.4 mm 6 mps 750 mmHg 82%
10:00 +22°C° 0.4 mm 7 mps 749 mmHg 84%
11:00 +22°C° 0.4 mm 7 mps 749 mmHg 87%
12:00 +22°C° 0.7 mm 6 mps 750 mmHg 86%
13:00 +22°C° 0.7 mm 5 mps 750 mmHg 86%
14:00 +22°C° 0.7 mm 3 mps 750 mmHg 85%
15:00 +22°C° 0 mm 3 mps 750 mmHg 83%
16:00 +21°C° 0 mm 2 mps 750 mmHg 80%
17:00 +21°C° 0 mm 2 mps 750 mmHg 77%
18:00 +20°C° 0 mm 2 mps 751 mmHg 82%
19:00 +21°C° 0 mm 1 mps 751 mmHg 86%
20:00 +20°C° 0 mm 1 mps 751 mmHg 90%
21:00 +19°C° 0 mm 1 mps 751 mmHg 91%
22:00 +19°C° 0 mm 1 mps 751 mmHg 91%
23:00 +19°C° 0 mm 1 mps 751 mmHg 92%

18 August, Tuesday

Time Temperature Precipitation Wind Pressure Humidity
00:00 +19°C° 0 mm 1 mps 751 mmHg 92%
01:00 +18°C° 0 mm 1 mps 751 mmHg 92%
02:00 +18°C° 0 mm 1 mps 751 mmHg 92%
03:00 +18°C° 0 mm 1 mps 751 mmHg 91%
04:00 +18°C° 0 mm 1 mps 751 mmHg 90%
05:00 +19°C° 0 mm 1 mps 751 mmHg 89%
06:00 +20°C° 0 mm 1 mps 751 mmHg 83%
07:00 +22°C° 0 mm 1 mps 751 mmHg 76%
08:00 +24°C° 0 mm 1 mps 751 mmHg 70%
09:00 +25°C° 0 mm 1 mps 751 mmHg 64%
10:00 +26°C° 0 mm 2 mps 751 mmHg 58%
11:00 +28°C° 0 mm 2 mps 751 mmHg 52%
12:00 +28°C° 0 mm 3 mps 750 mmHg 52%
13:00 +28°C° 0 mm 3 mps 750 mmHg 53%
14:00 +28°C° 0 mm 4 mps 750 mmHg 53%
15:00 +27°C° 0 mm 3 mps 749 mmHg 58%
16:00 +25°C° 0 mm 3 mps 749 mmHg 63%
17:00 +24°C° 0 mm 2 mps 749 mmHg 68%
18:00 +23°C° 0 mm 2 mps 750 mmHg 74%
19:00 +22°C° 0 mm 1 mps 750 mmHg 80%
20:00 +21°C° 0 mm 1 mps 750 mmHg 86%
21:00 +20°C° 0 mm 1 mps 750 mmHg 85%
22:00 +19°C° 0 mm 2 mps 750 mmHg 84%
23:00 +19°C° 0 mm 2 mps 749 mmHg 84%

19 August, Wednesday

Time Temperature Precipitation Wind Pressure Humidity
00:00 +19°C° 0 mm 2 mps 749 mmHg 83%
01:00 +19°C° 0 mm 3 mps 749 mmHg 81%
02:00 +19°C° 0 mm 3 mps 748 mmHg 80%
03:00 +20°C° 0 mm 3 mps 748 mmHg 78%
04:00 +20°C° 0 mm 3 mps 748 mmHg 76%
05:00 +20°C° 0 mm 3 mps 748 mmHg 74%
06:00 +21°C° 0.1 mm 3 mps 748 mmHg 75%
07:00 +22°C° 0.1 mm 3 mps 748 mmHg 77%
08:00 +22°C° 0.1 mm 4 mps 748 mmHg 78%
09:00 +23°C° 0 mm 4 mps 748 mmHg 75%
10:00 +25°C° 0 mm 4 mps 748 mmHg 73%
11:00 +27°C° 0 mm 4 mps 748 mmHg 71%
12:00 +27°C° 0 mm 4 mps 747 mmHg 68%
13:00 +28°C° 0 mm 5 mps 747 mmHg 65%
14:00 +28°C° 0 mm 5 mps 747 mmHg 63%
15:00 +27°C° 0 mm 4 mps 747 mmHg 67%
16:00 +26°C° 0 mm 4 mps 746 mmHg 71%
17:00 +25°C° 0 mm 3 mps 746 mmHg 75%
18:00 +24°C° 0 mm 3 mps 746 mmHg 79%
19:00 +22°C° 0 mm 3 mps 747 mmHg 84%
20:00 +21°C° 0 mm 3 mps 747 mmHg 89%
21:00 +20°C° 0 mm 3 mps 747 mmHg 88%
22:00 +20°C° 0 mm 3 mps 747 mmHg 88%
23:00 +20°C° 0 mm 3 mps 747 mmHg 88%

20 August, Thursday

Time Temperature Precipitation Wind Pressure Humidity
00:00 +20°C° 0 mm 3 mps 746 mmHg 87%
01:00 +20°C° 0 mm 3 mps 746 mmHg 87%
02:00 +20°C° 0 mm 3 mps 746 mmHg 86%
03:00 +20°C° 0.1 mm 3 mps 746 mmHg 86%
04:00 +20°C° 0.1 mm 3 mps 745 mmHg 86%
05:00 +20°C° 0.1 mm 4 mps 745 mmHg 86%
06:00 +21°C° 0.2 mm 4 mps 746 mmHg 81%
07:00 +23°C° 0.2 mm 4 mps 746 mmHg 76%
08:00 +25°C° 0.2 mm 4 mps 746 mmHg 71%
09:00 +26°C° 0.3 mm 5 mps 746 mmHg 72%
10:00 +26°C° 0.3 mm 5 mps 746 mmHg 73%
11:00 +26°C° 0.3 mm 6 mps 746 mmHg 74%
12:00 +25°C° 0.6 mm 5 mps 746 mmHg 78%
13:00 +23°C° 0.6 mm 4 mps 746 mmHg 83%
14:00 +22°C° 0.6 mm 3 mps 746 mmHg 88%
15:00 +22°C° 0.2 mm 3 mps 746 mmHg 89%
16:00 +21°C° 0.2 mm 2 mps 746 mmHg 89%
17:00 +22°C° 0.2 mm 1 mps 746 mmHg 90%
18:00 +22°C° 0.2 mm 1 mps 747 mmHg 89%
19:00 +21°C° 0.2 mm 1 mps 747 mmHg 89%
20:00 +21°C° 0.2 mm 1 mps 748 mmHg 88%
21:00 +20°C° 0 mm 1 mps 748 mmHg 88%
22:00 +18°C° 0 mm 0 mps 748 mmHg 88%
23:00 +17°C° 0 mm 0 mps 748 mmHg 88%
Show more